C/2019 T3 ( ATLAS )

Japanese version
Home page
Updated on November 5, 2020

---------------------------------------------------------------------

* Profile

Discovery Date October 6, 2019
Magnitude 18.9 mag
Discoverer Asteroid Terrestrial-Impact Last Alert System (ATLAS) search program

* Pictures

* Orbital Elements

Epoch 2021 Mar. 7.0 TT = JDT 2459280.5
T 2021 Mar. 2.70436 TT                                  Rudenko
q   5.9464729            (2000.0)            P               Q
z  +0.0002928      Peri.  112.27681     +0.60545291     +0.57396383
 +/-0.0000009      Node   139.52075     -0.19750950     -0.56273256
e   0.9982589      Incl.  121.86227     +0.77098429     -0.59489292
From 500 observations 2019 Jan. 17-2020 Oct. 16, mean residual 0".5.

* Magnitudes Graph

        m1 = -2.8 + 5 log d + 20.0 log r

---------------------------------------------------------------------

The orbital elements are published on M.P.E.C. 2020-U96.
The magnitudes graphs are made with Comet for Windows.

---------------------------------------------------------------------

Copyright(C) Seiichi Yoshida (comet@aerith.net). All rights reserved.